Wind_Speed
9 9 10 10 10 10 10 11 11 11 10 10 10 10 10 9 9 10 10 10 10 11 11 11 11 11 12 12 13 15 15 15 14 15 15 7 2 6 5 2 0 2 6 9 8 5 5 7 8 5 2 1 3 3 4 3 4 3 2 3 2 2 3 3 4 3 1 3 3 3 4 6 3 5 4 10 13 17 16 10 13 10 9 21 23 30 33 28
10 10 10 11 11 11 11 12 12 12 11 11 11 10 10 10 10 10 10 10 10 10 10 10 10 10 11 11 12 13 14 14 15 18 15 9 6 9 8 6 3 1 5 8 7 6 6 7 7 6 4 2 3 4 4 3 4 2 2 3 1 3 3 5 7 4 2 3 4 4 2 5 5 6 7 5 8 13 11 10 16 16 17 23 27 32 31 30
10 10 11 11 12 12 12 13 13 13 13 12 12 11 11 10 10 10 10 10 10 10 10 10 10 10 10 10 10 11 11 12 14 16 11 10 9 9 9 9 6 2 3 6 5 4 3 4 7 7 5 4 3 5 5 4 4 2 2 2 3 3 2 7 10 9 5 5 6 4 3 5 4 8 9 5 8 9 9 14 18 21 25 28 32 33 31 32
10 11 11 12 12 12 13 13 13 14 13 13 13 12 11 10 10 10 10 10 10 10 10 9 9 9 9 9 8 8 8 7 8 6 4 8 9 7 8 9 7 4 5 6 5 1 2 4 6 6 5 4 4 6 4 6 5 2 4 2 4 4 3 7 11 10 4 3 5 5 3 3 3 8 12 12 8 2 8 20 23 26 33 34 34 35 32 31
11 11 11 12 12 12 13 13 14 14 14 14 13 13 12 11 10 10 10 10 10 10 10 9 9 8 9 9 7 6 5 3 1 2 4 6 7 6 8 9 8 7 7 8 7 5 4 5 6 5 4 3 4 5 3 8 6 1 3 2 2 4 3 8 10 9 4 1 1 2 1 3 2 7 13 14 8 7 14 22 25 29 35 37 37 37 33 30
11 11 11 12 12 12 13 13 13 13 14 14 13 13 13 12 11 10 10 10 10 10 9 9 8 8 8 8 7 5 2 1 5 7 8 7 6 5 6 7 10 10 10 10 9 8 8 8 9 6 4 2 4 4 3 8 6 1 2 2 4 3 3 6 8 8 6 3 1 2 1 5 4 6 11 12 11 15 20 22 25 28 33 37 37 37 34 31
11 11 11 11 11 12 12 12 13 13 13 13 13 13 13 12 11 11 10 10 10 9 9 8 8 7 7 8 6 3 5 5 11 11 7 5 4 2 1 4 8 11 12 11 10 11 11 12 12 7 3 2 3 4 4 7 6 2 1 3 4 3 3 4 7 7 6 5 2 2 1 3 4 3 3 6 12 18 20 21 26 29 33 36 35 36 35 32
12 12 12 12 12 11 11 11 12 12 12 12 13 12 13 12 11 11 10 10 10 9 9 8 8 7 6 7 5 4 8 6 12 10 3 3 3 3 3 4 7 10 11 11 10 10 12 15 15 8 3 4 4 4 7 5 2 2 2 3 4 3 3 5 6 6 4 5 4 2 0 1 2 2 2 5 15 24 23 23 27 30 33 34 34 35 33 31
13 13 13 13 12 12 12 11 11 11 11 11 12 12 12 11 11 11 10 10 10 9 8 8 8 8 7 5 5 5 4 3 11 10 3 4 5 5 5 6 8 10 10 11 13 12 13 17 18 10 4 6 6 5 9 5 1 4 5 6 5 3 4 5 5 5 3 4 3 1 1 0 0 2 2 10 21 27 26 26 29 32 34 33 34 34 32 31
13 14 14 14 13 13 12 12 11 11 11 11 11 11 10 11 11 10 10 10 10 10 8 7 7 7 7 5 4 2 2 6 9 7 4 4 3 5 7 8 9 11 10 10 16 17 16 17 16 10 5 7 8 6 8 5 2 8 8 7 6 4 5 5 5 6 4 3 4 2 2 2 1 1 2 12 22 27 29 28 30 33 33 33 33 32 31 31
14 14 15 15 14 14 13 12 12 11 10 10 10 10 10 10 10 9 10 9 10 10 8 8 7 7 7 6 5 4 5 9 10 5 4 3 2 3 5 10 11 11 12 12 17 19 15 15 15 9 4 5 6 5 7 7 6 10 10 4 3 3 4 5 5 5 4 2 4 2 1 4 3 1 4 13 23 28 30 29 30 33 31 32 32 31 31 31
15 15 16 16 15 14 13 12 12 11 10 10 10 9 9 9 9 9 9 9 10 9 8 8 7 7 8 11 12 6 6 8 7 3 6 6 6 5 4 7 12 13 13 14 16 14 12 14 14 11 6 5 6 2 6 10 10 10 9 3 2 1 2 6 5 5 4 2 5 4 1 3 2 4 5 15 25 28 29 29 31 33 31 31 31 30 32 31
16 16 16 16 16 14 13 12 11 10 9 9 9 8 8 8 8 8 7 8 9 8 8 7 7 7 8 12 11 4 7 9 8 8 11 11 10 8 5 6 11 13 14 15 15 10 9 14 13 11 8 6 6 3 7 11 10 6 4 3 1 3 3 8 7 5 5 2 7 7 1 4 5 9 8 14 25 28 27 29 31 32 31 31 32 31 32 31
16 16 16 16 15 14 13 12 11 10 8 8 7 7 7 7 7 6 6 7 8 7 7 6 6 7 9 13 9 3 11 14 14 13 13 11 10 9 9 7 8 10 12 14 11 6 8 15 14 11 7 4 8 7 8 6 6 3 0 2 2 1 4 6 6 7 4 2 9 7 0 5 5 12 12 12 23 29 28 28 29 30 30 31 33 33 33 33
16 16 15 15 13 12 11 10 9 8 7 6 6 7 7 6 6 5 5 6 6 6 5 4 5 6 11 14 6 3 12 15 18 17 15 11 9 12 12 9 8 7 8 11 9 7 12 15 12 11 8 4 11 8 4 2 1 2 1 2 1 2 3 5 5 10 6 2 8 6 0 5 4 12 16 11 18 25 26 26 27 27 28 30 31 32 33 32
15 14 14 13 12 10 9 9 8 6 5 4 5 6 6 5 5 4 4 5 5 4 4 3 3 4 8 9 3 2 9 10 11 12 15 13 10 12 13 12 12 9 8 10 8 10 13 12 10 10 8 5 9 5 3 2 3 2 2 2 2 2 2 4 4 11 10 4 5 4 1 3 3 11 17 14 15 19 21 22 26 29 29 28 29 31 31 29
13 13 12 11 10 9 8 7 6 5 4 3 4 5 4 3 3 3 3 4 4 5 6 5 4 6 7 4 5 3 3 3 4 7 13 13 11 11 12 13 14 14 12 11 12 12 13 12 9 7 6 2 4 4 3 1 4 2 1 3 3 3 2 1 3 8 10 6 4 4 2 5 5 7 15 16 14 15 17 17 23 29 30 29 28 29 30 28
12 11 11 10 9 8 7 5 5 3 2 3 4 4 3 3 3 2 2 2 2 4 5 7 6 4 4 3 6 5 2 1 3 6 10 11 11 13 14 13 12 15 17 13 13 14 11 9 5 3 3 1 3 5 3 5 5 3 4 3 3 3 3 4 3 5 10 6 5 5 4 9 8 6 13 18 15 14 17 16 18 23 26 29 29 28 30 31
11 11 10 9 8 7 6 4 3 2 2 2 2 2 4 4 2 1 1 2 4 4 2 6 7 2 4 7 10 6 3 1 4 6 9 10 9 11 14 13 10 12 14 8 7 11 9 5 3 2 3 4 4 6 7 8 6 6 7 4 3 4 4 5 4 6 11 6 5 7 6 8 8 7 10 16 17 16 18 17 17 18 21 26 29 29 31 32
11 10 9 8 7 6 5 4 3 2 2 2 1 2 4 4 2 1 4 7 9 7 7 10 11 12 14 13 10 4 3 1 5 7 7 8 10 10 12 13 9 7 7 6 4 8 9 4 4 5 6 8 7 8 10 8 6 5 5 4 5 5 6 5 4 6 11 7 5 9 7 7 8 7 10 16 17 15 16 16 17 18 18 22 25 26 31 34
12 10 9 8 6 5 4 3 4 3 3 3 2 4 4 4 3 2 7 10 11 11 13 13 13 18 18 13 7 5 7 6 5 6 4 8 13 9 9 10 4 3 4 8 7 5 7 5 6 9 10 11 11 9 8 8 6 4 4 5 4 5 7 6 4 6 9 5 5 7 6 9 9 7 9 14 13 12 17 17 18 21 19 19 21 21 26 32
13 10 8 6 5 4 4 5 6 6 6 5 4 5 4 6 5 5 7 8 12 11 10 12 15 19 17 12 9 8 11 10 9 9 6 10 15 10 8 7 3 2 3 5 6 3 3 5 9 12 12 10 11 10 8 8 7 4 4 4 3 4 5 4 2 7 8 4 4 6 7 9 9 7 8 13 14 15 21 21 20 23 21 20 21 20 21 28
13 10 7 5 5 6 7 8 10 11 11 10 7 5 5 6 4 5 7 7 10 9 7 10 15 20 16 10 7 8 12 10 9 11 10 12 16 13 10 8 4 5 3 2 5 4 3 6 11 14 12 9 11 10 8 8 7 5 5 4 4 4 3 4 2 6 8 4 2 5 6 6 5 5 7 14 20 18 20 23 21 23 25 24 24 23 21 24
12 9 6 4 6 8 10 12 13 13 14 15 13 8 5 4 3 6 7 4 5 6 6 9 11 15 11 5 3 7 12 11 10 10 12 15 17 13 10 10 6 4 5 5 7 7 6 10 13 11 10 10 11 12 8 5 5 7 8 7 6 7 8 7 3 5 4 3 1 5 1 5 4 6 6 10 15 15 18 21 21 23 25 25 25 24 21 22
12 8 5 6 8 10 13 14 14 14 15 16 14 9 6 6 5 7 8 2 3 4 3 5 8 9 5 2 5 9 9 10 13 11 12 15 17 12 7 9 7 3 7 8 7 6 8 16 16 9 9 10 10 11 9 5 5 6 8 10 11 12 11 8 5 7 3 4 3 5 1 5 4 7 7 6 7 10 15 18 20 23 24 25 26 26 22 21
11 7 4 8 9 10 11 11 12 13 14 13 11 8 7 7 7 8 6 3 2 2 1 3 5 4 4 6 11 11 5 4 9 11 12 13 17 14 5 5 4 4 8 6 5 3 6 14 14 10 12 12 9 8 9 7 5 5 6 7 11 12 11 9 8 6 3 3 5 7 6 4 4 5 8 7 8 10 10 11 16 21 24 25 28 29 26 23
10 6 6 8 8 7 7 7 10 10 11 11 9 7 7 6 7 9 4 4 3 2 1 3 5 3 5 7 12 9 1 3 5 6 14 15 17 15 7 3 3 4 5 2 2 4 5 8 8 9 10 8 7 6 8 8 5 5 6 6 11 11 10 10 9 6 5 3 3 8 8 1 3 6 6 8 10 10 8 9 13 19 23 26 29 30 29 28
9 5 6 7 8 9 8 8 9 8 6 6 6 5 5 4 7 7 2 4 1 2 0 3 5 5 6 8 15 13 4 3 3 3 14 17 16 13 6 5 5 5 5 3 3 6 3 4 5 7 8 6 7 7 7 7 5 7 8 6 9 11 11 9 8 6 4 3 2 5 7 2 5 5 1 7 9 10 11 11 12 17 24 26 28 30 31 32
9 7 6 7 9 9 9 9 8 6 3 2 2 2 0 4 6 3 3 3 2 2 1 2 2 5 6 7 13 14 7 4 2 3 10 17 17 12 7 9 8 5 5 6 5 7 5 8 9 6 5 5 7 8 6 5 5 8 6 2 3 6 9 7 6 4 4 4 4 6 7 4 5 4 1 5 6 10 12 11 12 19 26 28 29 31 32 35
7 8 8 8 7 6 6 6 5 5 3 3 2 1 2 4 2 3 3 1 1 2 3 2 2 3 5 3 5 8 5 4 5 5 9 16 18 13 8 9 7 2 3 3 4 7 8 13 12 5 5 6 6 7 5 5 6 4 3 2 3 2 2 1 2 4 4 2 6 8 9 6 4 4 3 5 8 13 13 9 10 17 24 28 30 31 34 36
5 6 6 5 3 3 2 2 4 5 4 4 3 5 4 2 2 5 3 1 1 4 6 2 4 2 5 4 4 5 4 3 4 7 6 7 10 7 2 2 2 2 3 3 3 6 6 8 7 4 9 9 5 6 3 2 3 2 1 2 4 5 4 5 5 3 2 4 7 7 8 9 5 5 5 9 11 12 12 11 11 14 22 29 31 32 34 37
3 3 2 2 1 1 1 1 4 4 3 3 6 7 4 3 4 3 2 4 2 3 5 3 4 5 2 3 5 4 4 2 4 8 4 3 5 4 2 3 3 2 3 3 2 6 5 6 6 6 12 9 3 4 5 5 5 5 3 4 5 3 3 3 4 1 2 5 7 5 3 4 6 6 8 14 14 11 11 15 17 18 24 29 31 34 34 36
3 2 2 1 2 4 4 5 5 2 4 6 8 6 4 5 4 2 2 3 2 4 5 4 6 9 7 4 4 3 3 2 2 4 4 3 4 4 4 5 4 3 1 3 1 3 4 8 7 4 7 6 5 3 3 4 4 2 0 2 4 2 2 1 4 2 2 5 6 4 1 2 5 5 7 12 15 18 20 22 23 24 28 30 31 33 33 35
3 3 2 2 4 6 7 7 4 3 7 10 8 4 6 5 2 1 2 2 3 5 5 4 7 9 7 6 6 5 4 4 6 3 1 2 2 2 3 2 3 3 2 1 1 1 2 6 5 1 3 3 1 4 5 4 2 3 4 5 3 3 4 3 3 2 3 5 5 3 1 3 4 5 6 9 13 20 23 21 21 23 26 28 28 29 29 31
3 3 2 2 5 7 7 7 5 6 11 12 6 5 6 3 1 2 2 3 2 4 7 8 7 6 7 7 6 8 6 4 7 5 3 4 3 2 3 1 1 1 3 2 1 2 1 4 5 6 8 4 3 4 3 2 3 5 2 5 1 3 5 3 4 5 4 1 3 2 1 4 5 4 3 3 5 9 15 16 18 19 20 23 25 27 28 29
4 3 2 2 5 7 8 7 6 8 11 10 5 5 3 1 1 0 1 3 3 4 7 8 6 5 5 5 5 10 9 5 6 5 3 3 3 4 4 2 3 4 3 2 2 0 1 4 6 9 11 6 4 4 2 2 4 2 0 2 4 5 6 4 4 2 3 2 3 2 1 4 3 5 6 5 4 5 10 13 16 18 21 23 25 28 30 30
6 5 3 3 7 9 9 7 7 7 9 7 5 2 1 1 2 0 2 5 5 4 3 4 4 3 3 3 3 7 7 5 5 4 3 3 2 4 5 4 8 9 5 3 0 1 1 3 6 5 8 11 14 11 6 5 3 2 3 5 3 0 2 3 2 1 3 1 4 1 1 4 3 3 6 6 5 6 7 9 12 16 21 24 25 28 30 31
7 6 4 6 8 10 10 9 8 7 7 5 3 1 2 2 5 5 7 8 5 5 5 3 3 2 3 2 2 4 4 4 5 3 3 4 2 3 4 4 8 12 10 8 4 1 1 2 6 4 5 10 15 13 10 13 11 3 4 2 2 1 1 1 1 1 1 2 3 3 3 2 1 2 3 2 3 6 7 7 9 12 18 22 23 25 28 29
7 5 5 6 6 8 8 8 6 6 6 3 2 2 1 1 7 12 15 10 6 6 4 3 4 2 2 3 1 3 2 2 2 2 2 2 2 4 6 4 5 11 15 11 5 2 2 1 4 4 6 7 7 6 4 9 12 10 8 5 0 3 3 2 2 3 3 2 2 2 3 2 3 5 3 4 6 6 8 8 8 11 17 21 23 25 27 28
7 5 3 4 4 5 6 6 4 4 3 1 2 2 2 1 7 15 19 14 7 5 3 3 4 3 3 4 3 3 2 1 2 2 1 1 1 3 7 6 4 8 12 12 7 3 3 2 3 4 4 4 2 2 2 4 6 7 7 5 5 3 1 2 2 2 3 3 2 1 1 4 5 4 4 7 7 6 10 10 8 13 20 23 25 27 28 28
6 4 2 2 1 3 4 4 0 2 1 1 2 2 2 3 6 12 18 17 11 7 6 4 4 3 3 4 4 4 4 2 2 2 1 2 1 1 5 7 6 6 7 7 6 3 1 1 2 4 4 2 1 1 2 5 3 1 2 4 6 5 2 1 2 2 1 4 4 3 2 6 5 2 3 7 7 7 11 11 9 14 22 24 25 28 29 28
4 2 3 4 2 4 1 1 2 1 1 3 2 3 4 5 6 10 13 14 11 8 8 5 3 4 4 4 4 6 5 3 3 3 1 1 2 1 5 10 10 7 5 1 2 3 1 1 1 3 3 4 6 2 2 5 3 2 2 4 6 4 1 1 2 3 1 1 1 4 2 5 6 3 4 5 9 10 11 12 12 15 19 21 22 23 23 22
5 2 5 8 6 5 1 1 4 1 1 2 3 8 10 7 5 8 9 9 7 6 6 5 4 6 6 5 5 6 6 4 4 4 1 1 2 2 6 13 12 8 4 1 2 6 4 2 2 4 4 5 6 2 2 2 6 5 4 7 6 6 5 4 5 4 2 0 1 3 1 5 6 3 4 2 9 10 8 9 12 13 14 15 16 16 15 14
7 4 4 6 8 6 0 1 2 3 3 5 6 8 11 10 8 8 6 6 6 4 3 4 6 7 5 5 5 4 5 3 4 6 4 1 2 4 9 13 10 7 4 1 1 4 3 1 2 3 4 5 6 4 3 5 7 3 5 9 9 10 11 6 0 3 1 2 3 4 1 6 4 4 4 4 8 7 8 10 13 14 15 15 15 16 16 16
6 3 1 1 4 4 2 2 2 4 4 5 6 6 6 7 10 13 9 8 11 9 5 6 9 9 6 6 6 4 5 4 2 6 7 5 4 7 14 15 8 5 3 3 4 4 1 1 2 3 2 2 2 2 2 3 3 2 7 11 9 10 11 7 1 5 2 2 3 5 4 6 2 3 2 4 8 7 7 11 14 15 16 16 16 17 16 16
6 3 3 5 4 3 7 9 9 6 3 3 4 6 6 3 7 15 13 10 13 14 10 9 11 10 8 8 6 5 7 6 4 4 5 6 5 8 16 19 12 5 4 7 11 6 1 1 1 5 4 3 4 4 3 2 1 3 8 11 8 7 7 4 2 2 1 1 1 4 7 5 3 2 1 2 6 7 6 10 13 14 15 15 15 14 14 14
5 2 2 4 5 6 9 13 13 7 4 5 2 3 8 5 4 10 11 8 12 14 9 8 10 7 6 8 5 4 7 7 6 5 5 5 4 9 18 20 15 11 7 8 10 5 3 2 3 1 2 2 3 5 4 2 0 5 7 6 7 6 6 5 4 2 2 3 0 6 6 8 7 7 6 5 6 7 6 8 12 14 15 15 13 11 11 11
4 2 4 3 0 1 5 7 11 11 8 8 3 2 7 8 5 6 6 7 13 14 8 5 8 8 7 8 4 4 7 6 5 6 5 4 5 7 13 13 12 15 13 8 6 4 4 1 3 2 3 3 3 6 6 1 2 4 3 4 5 5 6 6 3 4 1 4 3 7 6 10 7 5 8 10 9 10 10 10 13 15 16 15 13 11 11 11
6 2 5 7 2 3 7 9 13 14 9 5 4 4 5 7 7 6 5 4 7 9 7 4 6 8 8 7 5 3 5 4 4 5 4 5 6 4 5 7 9 13 12 6 3 3 3 1 3 2 4 5 5 7 7 3 1 2 5 6 5 4 3 4 5 4 3 4 2 3 2 2 1 3 7 10 9 14 16 15 17 19 19 17 15 14 13 13
9 6 7 8 6 8 12 13 12 10 7 5 5 4 4 6 6 6 6 6 3 3 5 4 5 7 5 5 5 2 2 2 4 5 4 4 4 2 2 2 4 9 9 4 3 3 2 1 3 4 3 5 6 6 6 3 2 4 7 9 8 6 3 4 6 4 4 6 7 9 9 5 9 11 3 8 11 16 18 16 17 20 21 20 18 17 16 15
9 8 8 6 5 8 9 9 7 5 4 5 4 3 2 4 4 3 4 7 6 3 3 4 5 5 5 5 5 4 6 7 8 10 10 8 7 6 4 4 4 5 6 3 2 3 2 1 2 5 4 4 4 6 8 4 5 7 8 10 11 8 4 2 4 5 5 6 7 10 10 5 11 13 3 10 13 13 14 14 16 18 19 19 18 18 17 16
8 8 6 2 2 6 6 6 6 5 4 4 5 7 6 5 7 7 4 5 5 5 5 9 9 5 3 4 6 8 12 14 16 19 20 19 18 17 16 15 12 7 3 1 2 2 2 1 1 3 2 4 5 6 7 3 4 3 3 6 8 8 6 3 4 8 8 6 5 6 5 4 8 10 6 3 5 8 13 16 19 19 18 17 16 15 15 14
Wind_Direction
312 311 309 307 306 306 306 306 305 305 305 305 305 305 308 309 312 313 312 314 314 313 313 310 306 302 298 292 287 283 282 283 283 285 272 250 241 241 230 250 278 126 138 170 190 179 182 198 217 239 291 24 99 139 166 166 171 164 95 82 99 172 185 181 190 178 217 269 346 23 124 122 206 229 129 120 138 147 155 152 151 162 163 162 160 158 158 155
307 306 303 302 301 301 301 300 300 300 300 300 301 301 303 305 307 309 310 312 313 315 316 314 312 309 305 296 291 284 278 277 276 272 254 231 239 238 230 228 229 181 148 169 175 166 195 220 224 234 252 225 133 145 168 179 175 175 101 87 175 206 205 165 155 175 230 272 302 315 60 112 176 172 133 123 136 150 148 123 126 125 134 147 151 153 156 160
306 303 301 299 297 297 295 295 295 295 296 296 297 299 300 301 302 304 305 308 311 314 316 318 318 317 312 303 299 292 288 284 277 270 247 222 226 226 223 218 220 222 157 166 155 142 201 216 207 217 232 231 200 166 163 181 193 211 129 82 248 210 168 165 162 176 204 275 289 317 50 98 156 148 137 126 120 145 149 135 133 129 137 145 150 154 158 165
309 305 301 298 295 294 292 291 290 290 291 291 293 294 294 296 297 298 300 303 307 311 316 320 321 324 319 309 305 301 308 308 285 277 220 198 197 200 199 198 211 208 172 178 171 166 233 190 186 204 226 234 213 192 178 180 190 199 152 154 228 172 134 181 175 174 179 265 277 326 25 86 136 156 149 134 116 161 169 161 160 151 150 151 155 159 161 168
314 309 304 300 297 294 291 289 288 287 288 287 288 289 290 292 292 294 295 298 303 308 313 318 323 327 322 312 311 306 326 353 319 79 108 160 172 185 173 172 197 198 183 192 196 207 221 193 185 201 223 221 179 190 216 190 181 105 163 171 175 143 145 188 175 169 160 135 271 355 32 10 33 168 165 149 146 198 179 175 174 164 161 160 161 163 164 170
317 313 308 304 300 297 294 291 289 287 286 285 285 285 286 286 287 289 289 293 297 303 309 316 321 326 325 314 311 305 303 130 144 115 102 116 123 139 144 170 185 177 183 201 205 207 219 208 199 206 202 199 185 188 214 194 180 96 205 153 123 134 156 176 158 161 171 157 153 47 16 343 37 156 178 182 200 188 173 177 176 168 167 165 163 166 168 171
320 315 311 307 303 300 297 295 292 289 287 285 283 282 282 283 284 283 283 287 289 296 302 310 316 322 329 314 309 288 257 215 164 141 121 122 111 121 145 208 190 178 187 201 207 212 221 213 211 214 175 197 213 188 183 187 178 131 206 177 140 158 146 137 140 153 171 168 159 64 12 351 66 133 203 203 198 173 161 172 174 167 166 166 165 169 173 175
321 316 312 309 305 303 299 297 294 291 289 286 284 281 279 279 278 278 278 279 281 288 294 303 311 314 326 316 312 278 261 233 177 170 163 175 226 243 235 231 207 198 194 199 211 213 218 221 227 219 170 204 197 169 168 164 185 147 164 176 155 177 137 112 141 161 156 142 127 81 150 64 71 282 13 130 164 158 155 164 167 165 165 166 168 171 176 178
321 317 313 310 307 304 301 301 297 295 292 288 287 281 278 275 272 273 271 272 273 277 284 294 301 308 319 313 314 294 266 189 176 187 171 163 193 204 214 216 211 214 206 208 214 213 216 225 236 230 196 196 173 169 173 150 256 196 161 158 158 189 165 139 158 168 162 163 158 143 275 44 112 281 96 146 159 155 156 162 164 165 166 169 173 175 177 179
322 318 315 312 309 307 305 304 301 300 297 293 291 286 282 274 269 266 264 266 265 268 275 281 289 300 307 308 318 297 166 132 149 161 125 128 174 193 213 214 210 220 217 211 210 214 215 220 238 235 190 179 164 169 184 170 211 179 155 158 171 186 182 181 183 176 176 196 192 186 291 311 25 320 148 159 162 159 158 160 162 164 168 173 176 179 179 181
323 319 317 314 312 312 309 307 304 302 300 297 295 291 286 279 272 263 259 258 257 262 264 268 281 285 294 294 270 218 157 128 122 124 136 135 285 255 231 218 211 219 219 215 213 218 225 236 255 249 192 165 156 161 192 189 175 163 149 149 212 191 186 198 188 184 183 199 208 179 326 323 360 266 167 155 163 164 161 160 165 167 170 175 178 183 185 187
322 319 317 315 315 315 313 311 306 303 302 300 299 295 290 284 277 267 259 255 253 256 256 262 269 274 289 278 258 222 158 146 142 195 210 211 258 277 299 235 213 214 218 219 221 227 246 261 274 280 262 173 141 138 195 178 157 155 148 126 300 340 220 218 201 193 193 199 193 153 33 314 303 224 166 146 160 166 165 166 169 172 175 179 182 185 189 193
320 318 316 315 316 316 316 313 309 306 303 301 302 299 292 285 280 273 262 255 252 250 251 256 264 280 290 274 271 233 197 211 222 233 223 225 239 242 277 263 216 213 224 229 232 238 267 273 276 290 276 184 156 141 159 156 142 148 147 107 73 11 312 224 201 184 184 196 180 160 206 257 256 231 190 152 165 168 169 171 171 176 180 182 185 186 189 193
319 317 316 316 316 316 317 315 313 310 305 306 306 300 293 286 283 276 263 254 251 249 248 254 271 289 282 276 296 262 217 222 222 209 199 218 238 236 247 257 220 210 227 234 235 242 280 288 286 291 290 176 151 136 132 136 133 141 141 52 107 110 287 232 182 161 164 213 179 147 247 238 253 236 210 164 169 169 170 174 175 179 181 183 187 190 191 191
319 318 317 318 319 319 320 318 317 314 310 311 305 301 295 287 285 275 260 249 246 247 239 248 271 285 285 286 311 204 211 216 220 207 190 202 224 231 233 235 222 205 228 234 235 265 284 297 300 290 289 139 134 134 111 49 54 90 142 314 322 175 272 282 192 170 160 194 181 139 25 252 264 231 212 176 170 171 174 180 180 182 182 182 187 190 192 192
322 323 322 323 324 325 325 323 324 322 318 314 304 305 302 293 284 271 256 239 235 225 202 206 237 269 284 292 348 182 209 214 227 213 199 203 210 221 223 224 226 217 230 237 241 276 284 289 294 279 266 153 134 129 75 41 323 3 143 241 271 197 253 305 226 190 171 140 188 176 167 259 277 228 209 185 178 175 174 180 182 185 185 184 186 186 188 188
329 328 327 329 330 329 329 331 332 332 329 317 312 315 318 314 294 279 261 238 226 195 186 191 219 269 269 274 352 323 242 242 240 201 195 205 209 212 216 225 231 224 225 239 246 262 272 270 270 266 254 179 130 113 88 236 271 301 181 243 244 209 184 226 264 205 176 143 191 210 214 247 272 238 207 191 189 183 177 177 177 183 188 188 186 184 187 185
334 331 330 331 332 333 334 339 342 348 342 326 330 342 360 353 313 294 272 232 217 178 188 204 211 284 274 260 334 342 24 2 217 187 180 195 208 209 217 231 240 227 221 230 238 240 253 261 256 275 284 263 130 130 170 222 221 201 195 232 243 223 198 204 246 194 170 158 182 192 228 245 267 264 210 197 196 194 189 182 175 176 182 188 188 186 188 187
338 335 332 332 335 337 340 348 358 9 347 347 12 41 45 30 18 342 352 208 202 172 190 214 203 246 268 275 309 330 18 75 163 177 181 188 200 203 215 233 249 235 215 209 225 220 225 249 266 295 274 243 190 172 204 214 200 196 190 191 194 207 231 218 224 188 164 154 189 193 217 239 249 255 217 200 198 200 198 189 185 179 170 180 189 191 191 191
344 340 335 335 339 341 350 3 18 32 3 14 60 88 55 38 93 143 298 266 243 252 274 253 240 259 273 284 298 320 333 249 179 191 195 194 193 191 209 226 249 252 207 168 199 210 201 217 249 241 239 245 236 205 211 217 203 183 182 208 201 197 247 240 219 198 161 150 214 203 214 245 242 241 219 201 196 198 198 188 189 191 174 175 185 190 193 194
351 347 341 341 344 350 10 26 38 39 22 28 79 104 69 48 83 341 309 287 280 282 270 262 260 262 270 277 266 285 312 298 239 219 204 199 193 185 205 212 229 292 223 187 199 210 190 206 237 231 232 241 247 238 229 228 205 173 184 223 233 214 244 247 200 185 163 160 232 202 206 244 242 239 218 200 194 199 202 193 191 196 187 183 186 185 189 193
356 354 349 351 1 20 46 60 64 60 54 54 82 116 87 66 65 359 335 299 299 304 275 262 257 255 262 262 248 275 292 284 258 227 191 185 189 187 190 185 186 265 254 197 198 240 217 231 244 239 240 241 249 254 242 228 204 193 205 207 248 233 245 275 171 164 166 173 239 199 199 238 240 232 215 198 197 207 209 203 199 199 195 193 191 186 186 189
0 358 358 10 39 65 81 82 81 74 65 58 63 114 111 71 62 345 336 295 297 306 266 239 239 248 260 263 243 254 264 259 248 228 203 188 188 190 181 168 189 225 255 208 191 227 242 241 243 240 249 254 257 261 241 222 202 203 209 187 228 223 200 264 222 168 177 180 177 173 202 255 249 223 222 206 202 208 214 212 210 207 204 201 196 189 187 189
2 5 15 52 78 92 97 92 89 80 70 63 60 91 111 50 22 337 336 298 290 295 247 220 233 248 257 270 227 228 241 236 243 233 205 196 187 184 186 180 180 204 236 227 198 210 230 241 241 234 243 245 252 264 248 207 199 220 221 203 212 213 203 220 197 142 174 233 109 98 18 295 237 202 222 215 206 209 213 212 213 214 210 206 201 197 192 191
6 16 43 86 100 103 98 91 89 83 76 70 58 63 65 36 19 352 348 336 294 298 232 211 238 246 240 223 199 224 240 233 243 238 204 199 191 181 188 187 176 199 231 236 221 216 238 245 245 241 245 242 242 257 247 201 192 223 230 214 197 199 211 202 135 111 102 275 238 122 75 290 248 209 209 204 209 214 214 211 210 211 207 204 204 203 199 191
11 23 73 109 111 104 96 86 83 80 70 64 58 48 33 26 22 358 353 45 351 283 163 192 220 233 239 214 207 225 260 260 253 234 203 205 200 188 183 185 178 208 216 228 235 217 236 240 237 237 243 244 240 246 239 217 206 232 241 212 185 186 207 191 143 129 139 237 220 159 178 267 295 240 211 191 206 216 216 216 215 210 205 204 205 205 201 191
18 38 106 120 110 101 97 79 70 67 52 55 70 54 22 14 6 343 340 53 12 270 181 194 192 222 244 206 192 197 241 330 304 225 197 200 196 183 181 202 193 229 216 170 238 233 242 247 247 245 246 247 245 244 224 199 181 241 238 175 168 180 201 192 160 168 190 202 213 167 166 223 295 254 209 179 202 218 217 219 220 213 208 207 206 205 201 193
27 55 120 125 104 95 91 73 60 56 47 58 80 69 41 10 338 327 38 80 320 292 24 208 209 251 247 196 190 195 229 294 338 221 198 193 186 174 182 213 189 222 223 147 239 257 245 250 256 253 256 252 248 251 228 190 173 241 236 163 167 187 202 200 175 188 184 139 257 201 161 177 271 273 192 161 197 222 220 216 214 211 210 208 206 205 202 197
42 65 107 119 107 94 84 76 66 65 77 86 90 104 60 324 319 331 86 88 259 295 324 221 245 260 229 194 205 216 242 250 239 237 187 177 185 186 192 216 206 225 230 176 218 258 249 257 258 245 248 235 232 243 224 199 213 241 245 164 161 195 205 205 172 160 132 137 239 228 171 181 267 286 101 146 198 223 224 218 208 208 208 207 206 204 201 200
61 83 102 111 111 103 92 84 78 83 103 114 92 20 308 307 330 69 58 44 210 320 322 247 262 249 182 173 245 231 222 225 218 206 170 166 186 196 184 204 204 205 263 205 222 250 260 276 274 242 243 244 239 249 220 215 238 250 281 322 19 348 231 230 101 113 117 191 245 227 183 173 260 274 192 179 204 211 213 214 205 204 205 206 205 204 201 200
76 103 115 117 114 123 123 80 83 83 79 85 45 3 352 345 71 87 58 333 263 328 336 274 258 263 163 183 256 231 206 251 196 162 175 174 181 199 151 167 192 48 346 330 303 285 298 301 286 249 266 272 273 281 280 284 296 54 40 63 45 348 358 18 2 62 123 248 257 234 185 169 220 267 220 215 223 211 202 204 200 197 201 203 203 202 202 202
75 100 128 140 96 94 228 117 100 72 37 17 1 3 31 50 37 60 357 324 324 326 325 294 291 317 280 236 256 224 175 223 197 161 183 189 163 205 206 169 176 62 338 287 303 318 319 298 285 277 278 271 238 287 318 346 13 59 46 59 74 350 1 11 312 313 215 251 257 246 191 179 228 253 221 218 227 221 208 204 198 193 196 200 200 200 201 201
64 66 67 72 72 73 87 109 115 75 24 2 357 10 74 77 51 33 340 324 317 311 302 292 311 319 324 338 321 289 115 84 263 187 176 150 157 223 242 205 184 117 205 237 254 337 316 299 302 308 283 259 186 217 291 325 352 41 137 120 118 115 74 270 269 286 258 266 271 254 237 261 268 273 230 214 220 216 211 207 200 195 195 197 199 199 200 200
46 41 36 48 88 93 99 105 105 66 28 7 2 37 70 70 80 61 22 297 270 306 307 314 321 326 353 25 19 11 52 36 0 16 75 48 96 253 289 250 207 132 130 161 181 230 282 301 297 296 294 291 193 222 218 200 253 253 175 138 138 156 148 204 220 210 242 267 292 293 198 213 236 259 225 212 233 224 210 203 197 195 196 194 194 196 199 201
27 27 26 67 97 103 110 101 78 49 21 6 14 68 67 67 286 10 360 283 280 318 322 340 352 3 16 18 16 20 41 32 4 19 39 36 49 350 340 306 237 113 102 103 237 237 276 276 276 301 309 337 18 300 271 170 233 261 158 118 143 188 168 209 207 188 185 217 293 294 230 216 217 266 269 202 250 220 188 180 179 182 186 185 187 191 196 200
5 10 17 90 108 105 107 93 69 46 19 13 45 63 62 130 222 311 278 287 308 324 329 349 16 41 15 5 6 4 16 27 7 17 31 47 63 11 348 331 338 15 84 134 228 333 2 280 291 321 322 341 9 332 306 226 229 256 7 198 226 191 168 201 245 223 106 115 266 263 278 296 307 322 336 30 63 126 150 158 162 166 171 179 187 191 194 198
355 1 29 105 108 100 98 82 65 45 17 29 76 69 272 314 357 307 333 336 321 329 18 18 10 53 34 11 360 351 6 19 9 15 2 354 21 357 342 344 3 15 41 69 30 172 122 279 292 327 328 332 349 8 20 334 289 178 227 231 227 35 127 147 207 325 63 163 268 289 240 298 356 335 329 17 74 120 140 144 148 158 170 181 189 190 193 197
354 4 60 94 91 84 81 69 60 41 21 45 72 348 245 352 14 27 16 5 348 1 47 41 347 82 83 31 328 337 20 23 360 14 5 350 347 357 358 346 1 5 8 34 45 293 101 292 294 339 352 332 352 21 22 347 343 326 265 250 112 68 326 327 163 162 133 204 283 317 278 256 165 226 290 333 154 152 143 143 149 163 177 185 190 189 190 193
349 9 68 82 71 63 70 71 64 51 38 46 35 318 240 22 24 30 25 19 28 34 31 357 359 26 50 50 360 331 38 80 14 28 25 360 336 8 14 351 351 358 2 28 51 315 34 47 282 335 6 342 356 37 27 335 338 344 341 342 37 161 178 226 208 168 173 197 234 300 308 295 231 213 210 236 227 174 153 163 171 176 183 187 190 190 190 191
353 7 52 84 70 41 59 71 68 77 75 129 174 254 266 36 27 28 32 32 37 49 26 329 9 21 349 17 20 346 19 85 40 51 27 354 340 355 7 4 356 353 5 35 47 349 21 51 290 309 352 1 1 32 5 308 317 339 344 336 321 312 193 235 253 178 149 155 174 184 291 279 255 224 202 213 221 192 173 176 180 180 183 189 193 194 194 194
358 357 15 112 96 7 55 93 150 130 118 257 208 241 293 73 37 22 36 44 40 37 28 1 11 29 4 6 12 7 3 341 1 61 28 356 28 351 1 13 13 353 3 36 39 11 27 40 315 311 338 355 273 249 295 277 267 302 321 341 340 322 297 278 285 289 106 132 153 146 197 265 263 269 237 198 188 207 191 171 171 184 186 190 194 196 196 196
6 23 119 145 249 304 23 137 255 181 188 271 192 126 81 83 50 20 33 45 41 21 13 14 14 24 25 14 20 27 15 339 351 31 31 24 76 239 346 12 24 24 31 42 325 348 41 96 332 302 293 285 281 268 229 269 298 42 10 5 2 337 310 189 209 244 311 45 114 120 135 264 269 300 291 211 181 197 190 166 168 185 188 191 196 201 200 198
349 339 157 169 215 253 284 347 343 360 258 310 76 88 76 71 46 28 32 37 38 16 6 16 21 30 33 16 20 31 18 349 338 350 349 55 32 301 353 20 22 14 31 102 314 344 357 48 17 315 301 302 301 297 128 25 22 26 346 351 356 336 311 252 200 178 184 217 47 75 75 270 272 308 318 196 165 164 155 153 165 171 171 174 181 185 181 178
345 317 187 178 205 217 218 339 341 5 346 3 43 69 72 64 43 38 40 26 23 20 13 15 19 30 29 14 22 29 25 18 331 342 360 30 336 335 6 22 25 19 28 152 312 355 334 328 47 5 341 347 348 2 21 12 25 21 312 328 342 344 340 317 228 84 95 201 120 97 243 260 275 340 359 92 119 114 108 134 158 157 145 139 140 143 143 144
5 342 300 88 192 208 13 36 100 63 19 13 34 45 59 61 43 42 47 34 30 38 50 27 19 25 22 18 20 8 25 55 346 344 6 4 342 352 359 2 11 32 22 342 352 5 300 210 89 87 56 353 348 350 306 307 348 340 303 316 335 355 351 333 32 72 52 305 79 111 224 257 285 353 352 94 109 105 110 138 153 149 137 128 124 127 131 132
33 13 355 35 63 53 32 50 71 74 42 33 41 31 38 59 37 35 40 40 32 37 54 42 22 24 22 14 14 358 6 26 23 12 18 5 338 337 350 354 353 333 320 352 1 4 101 88 120 145 150 183 211 234 229 195 4 303 294 314 345 7 350 343 53 75 143 120 83 201 213 229 242 227 226 140 130 133 147 158 150 132 122 119 118 123 128 129
62 32 357 14 28 30 36 48 58 59 52 63 68 9 35 49 25 26 37 53 39 32 49 47 27 29 17 2 7 2 357 10 21 14 1 357 338 332 345 352 353 348 349 5 5 15 91 14 323 155 157 203 218 262 265 146 198 269 279 322 10 12 353 22 47 300 234 117 255 259 207 177 205 213 190 185 171 162 173 168 141 119 115 119 121 128 137 136
71 46 28 32 337 341 13 39 58 57 48 54 60 5 38 43 26 15 29 60 54 38 36 36 26 30 23 17 34 16 0 10 15 357 337 344 351 344 343 339 344 360 9 9 4 49 108 265 291 360 353 330 335 318 312 307 252 268 302 4 22 19 12 26 3 291 181 126 227 262 211 175 194 218 197 191 179 166 164 158 143 130 127 132 136 144 154 154
53 31 22 36 46 337 14 50 73 66 44 39 47 25 45 49 25 2 6 44 57 37 34 46 23 20 26 42 72 53 7 2 339 331 324 336 340 335 334 318 324 352 5 4 349 42 99 276 307 26 7 337 329 315 315 327 283 330 14 9 7 16 30 12 313 288 80 73 343 344 54 149 346 307 230 208 175 154 151 151 149 143 142 147 150 151 157 160
49 31 358 8 15 13 34 59 79 73 41 39 51 20 46 67 36 4 19 44 62 25 33 65 42 19 20 44 69 62 319 263 262 281 280 311 320 288 277 274 292 335 349 344 333 15 77 287 326 53 34 324 310 315 327 352 83 57 23 3 355 353 8 360 318 310 53 31 2 25 42 17 339 332 274 177 155 146 146 150 151 149 151 154 152 151 154 155
63 47 4 350 9 16 36 56 66 78 51 32 39 12 28 91 74 30 17 35 55 40 19 83 81 31 5 16 23 339 311 295 275 274 273 271 269 255 249 260 273 312 329 309 306 1 53 297 329 60 44 300 299 334 333 351 75 63 24 357 347 340 336 338 330 346 31 29 7 23 34 359 321 333 14 150 153 145 144 149 152 154 159 159 153 153 155 155
65 55 33 51 40 8 27 50 45 61 62 16 22 27 28 62 73 61 28 358 19 36 60 89 83 37 352 351 334 313 310 306 297 293 290 283 275 264 256 258 259 254 250 276 302 268 166 132 340 76 57 286 295 330 324 347 73 57 348 338 330 323 322 333 359 4 14 34 44 37 21 312 308 339 11 134 155 143 152 161 162 162 165 164 160 159 160 162
Height
1535 1534 1534 1533 1533 1533 1532 1532 1532 1531 1531 1531 1531 1530 1530 1530 1529 1529 1528 1528 1528 1527 1527 1527 1526 1526 1525 1525 1525 1525 1525 1524 1524 1524 1523 1523 1525 1525 1525 1525 1526 1525 1525 1525 1525 1525 1525 1525 1525 1525 1525 1525 1525 1525 1525 1526 1526 1526 1529 1534 1538 1538 1536 1533 1533 1532 1533 1531 1529 1530 1531 1531 1530 1529 1527 1527 1528 1528 1530 1531 1531 1532 1532 1534 1536 1538 1541 1544
1534 1533 1533 1532 1532 1532 1531 1531 1531 1530 1530 1530 1529 1529 1529 1529 1528 1528 1527 1527 1527 1526 1526 1525 1525 1525 1524 1523 1523 1523 1523 1523 1523 1522 1521 1522 1523 1523 1524 1525 1525 1525 1524 1525 1525 1524 1524 1525 1525 1525 1525 1525 1525 1525 1525 1526 1526 1527 1530 1535 1536 1534 1530 1527 1528 1529 1530 1530 1528 1528 1529 1530 1530 1528 1527 1527 1529 1528 1529 1531 1532 1533 1534 1536 1538 1540 1543 1544
1533 1532 1532 1531 1531 1530 1530 1530 1529 1529 1529 1528 1528 1528 1528 1528 1527 1527 1526 1526 1526 1525 1525 1525 1524 1524 1523 1522 1522 1521 1521 1521 1520 1519 1519 1521 1522 1522 1523 1524 1524 1525 1524 1524 1525 1524 1524 1524 1525 1524 1524 1525 1525 1526 1525 1525 1526 1526 1529 1535 1533 1528 1526 1525 1526 1527 1527 1528 1526 1527 1528 1528 1528 1527 1527 1527 1528 1528 1528 1529 1531 1533 1535 1537 1539 1541 1543 1544
1532 1531 1530 1530 1530 1529 1529 1528 1528 1528 1527 1527 1527 1527 1527 1526 1526 1526 1526 1525 1525 1525 1524 1524 1523 1523 1522 1521 1521 1520 1520 1520 1518 1517 1518 1519 1520 1521 1522 1522 1524 1524 1524 1524 1525 1524 1524 1525 1525 1524 1524 1524 1524 1525 1525 1525 1525 1525 1528 1533 1529 1524 1526 1526 1525 1525 1526 1527 1526 1526 1526 1527 1527 1527 1527 1526 1530 1531 1528 1526 1527 1529 1532 1535 1538 1541 1543 1544
1530 1530 1529 1529 1528 1528 1527 1527 1526 1526 1526 1526 1525 1525 1525 1525 1525 1525 1524 1524 1524 1524 1523 1523 1522 1522 1521 1520 1520 1519 1520 1522 1518 1516 1517 1518 1519 1520 1521 1521 1523 1524 1524 1524 1524 1524 1524 1524 1524 1524 1524 1524 1524 1525 1524 1523 1523 1525 1526 1526 1525 1524 1526 1525 1525 1526 1526 1526 1526 1525 1526 1527 1526 1527 1526 1525 1528 1529 1526 1526 1526 1527 1529 1532 1536 1540 1542 1544
1530 1529 1528 1527 1527 1526 1526 1525 1525 1525 1524 1524 1524 1524 1523 1524 1524 1523 1523 1523 1523 1523 1522 1522 1521 1521 1520 1519 1519 1519 1520 1522 1517 1516 1518 1517 1519 1520 1520 1521 1522 1523 1523 1523 1523 1523 1523 1523 1524 1524 1523 1523 1524 1525 1523 1522 1523 1526 1526 1523 1523 1524 1525 1525 1525 1526 1525 1525 1526 1526 1525 1526 1526 1526 1526 1525 1524 1524 1524 1526 1527 1528 1530 1532 1536 1539 1542 1543
1528 1528 1527 1526 1525 1525 1524 1524 1523 1523 1523 1522 1522 1522 1522 1522 1522 1522 1522 1522 1522 1521 1521 1521 1520 1520 1520 1519 1518 1518 1518 1517 1515 1516 1517 1517 1519 1519 1520 1521 1521 1522 1522 1522 1522 1522 1523 1523 1523 1522 1523 1524 1524 1523 1523 1522 1522 1525 1527 1523 1523 1524 1524 1525 1525 1525 1524 1524 1525 1525 1525 1526 1527 1526 1526 1524 1523 1524 1526 1527 1528 1530 1532 1534 1537 1539 1541 1543
1527 1526 1525 1525 1524 1523 1523 1522 1522 1521 1521 1520 1520 1520 1520 1520 1520 1520 1520 1521 1520 1520 1520 1520 1519 1519 1519 1518 1517 1518 1517 1515 1515 1516 1516 1517 1518 1519 1520 1520 1521 1521 1521 1521 1521 1521 1522 1522 1522 1521 1523 1523 1522 1522 1522 1523 1523 1524 1525 1524 1523 1524 1525 1525 1525 1524 1524 1524 1524 1524 1524 1526 1528 1526 1525 1524 1523 1524 1526 1528 1530 1531 1533 1535 1537 1539 1542 1544
1526 1525 1524 1523 1523 1522 1521 1521 1520 1520 1519 1519 1519 1518 1518 1518 1519 1519 1519 1519 1519 1519 1519 1519 1518 1518 1518 1518 1517 1517 1515 1513 1514 1515 1516 1517 1517 1518 1519 1519 1520 1521 1521 1521 1520 1521 1521 1520 1520 1520 1521 1521 1521 1522 1522 1525 1527 1523 1523 1524 1524 1525 1525 1525 1525 1524 1524 1524 1523 1524 1523 1524 1526 1526 1525 1524 1524 1526 1527 1529 1531 1532 1534 1536 1537 1539 1541 1543
1525 1523 1523 1522 1521 1521 1520 1519 1519 1518 1518 1517 1517 1517 1517 1517 1517 1517 1517 1517 1517 1517 1518 1518 1518 1517 1517 1517 1517 1516 1513 1513 1514 1515 1515 1516 1517 1517 1518 1518 1519 1519 1520 1520 1519 1519 1519 1518 1518 1519 1520 1519 1520 1522 1522 1524 1525 1521 1522 1523 1524 1525 1524 1524 1524 1524 1524 1523 1523 1524 1524 1524 1524 1525 1527 1526 1525 1527 1528 1530 1532 1532 1534 1535 1537 1539 1541 1543
1523 1522 1521 1520 1519 1519 1518 1518 1517 1517 1517 1516 1516 1516 1515 1515 1515 1515 1516 1516 1516 1516 1516 1517 1516 1517 1516 1516 1517 1515 1512 1513 1513 1514 1515 1515 1516 1517 1517 1517 1518 1519 1519 1518 1517 1518 1518 1518 1519 1520 1520 1519 1519 1521 1521 1521 1521 1521 1522 1524 1524 1524 1525 1524 1524 1524 1524 1524 1524 1524 1524 1523 1523 1525 1525 1524 1526 1528 1528 1531 1532 1533 1534 1535 1537 1539 1540 1542
1521 1520 1519 1518 1518 1517 1517 1516 1516 1515 1515 1515 1515 1514 1514 1514 1514 1514 1514 1514 1514 1515 1515 1515 1516 1516 1516 1515 1514 1512 1511 1513 1513 1513 1515 1515 1515 1516 1516 1516 1517 1517 1518 1517 1517 1518 1519 1519 1520 1520 1519 1518 1519 1522 1521 1520 1520 1521 1522 1526 1527 1525 1526 1525 1523 1524 1524 1524 1523 1524 1528 1528 1525 1524 1523 1523 1526 1528 1529 1530 1532 1533 1534 1535 1536 1538 1539 1541
1520 1519 1518 1517 1516 1515 1515 1514 1514 1514 1514 1514 1513 1513 1513 1512 1513 1513 1513 1513 1513 1514 1514 1514 1515 1515 1515 1512 1509 1509 1510 1511 1511 1511 1512 1513 1514 1515 1515 1516 1516 1517 1517 1517 1517 1518 1519 1518 1519 1519 1517 1517 1519 1521 1520 1519 1521 1524 1523 1526 1530 1532 1530 1524 1522 1524 1523 1524 1522 1525 1536 1535 1525 1521 1521 1523 1525 1527 1529 1529 1531 1532 1533 1534 1536 1537 1538 1539
1518 1517 1516 1515 1514 1514 1513 1513 1513 1512 1512 1512 1512 1512 1511 1511 1512 1512 1512 1512 1512 1513 1513 1514 1514 1514 1514 1509 1506 1508 1508 1508 1508 1509 1510 1511 1512 1513 1515 1515 1515 1516 1516 1516 1517 1517 1517 1517 1518 1517 1516 1517 1517 1518 1520 1521 1523 1525 1527 1528 1532 1538 1533 1522 1521 1523 1524 1526 1522 1526 1538 1534 1524 1520 1520 1523 1524 1524 1527 1528 1529 1530 1532 1533 1534 1536 1537 1538
1517 1515 1514 1514 1513 1512 1512 1511 1511 1511 1511 1511 1511 1510 1510 1510 1511 1511 1511 1511 1512 1512 1513 1513 1513 1513 1512 1506 1505 1506 1505 1506 1506 1507 1509 1510 1511 1512 1513 1515 1515 1515 1516 1516 1516 1516 1516 1516 1516 1516 1516 1515 1516 1520 1524 1526 1525 1526 1533 1536 1534 1536 1533 1524 1521 1522 1524 1525 1522 1527 1537 1532 1524 1519 1518 1522 1523 1524 1526 1526 1528 1529 1530 1531 1532 1534 1535 1536
1515 1514 1513 1512 1511 1511 1510 1510 1510 1510 1510 1509 1510 1509 1509 1510 1510 1510 1510 1510 1511 1512 1512 1513 1512 1513 1511 1506 1504 1505 1505 1505 1505 1507 1509 1509 1510 1511 1512 1514 1514 1515 1515 1515 1516 1516 1516 1516 1515 1515 1515 1516 1518 1523 1529 1534 1533 1530 1534 1538 1535 1534 1534 1529 1522 1519 1521 1524 1524 1527 1533 1531 1523 1518 1517 1520 1521 1523 1525 1525 1526 1527 1528 1529 1531 1532 1534 1535
1514 1513 1512 1511 1510 1509 1509 1509 1509 1508 1509 1509 1509 1508 1509 1509 1509 1510 1510 1510 1511 1511 1512 1512 1511 1512 1509 1504 1504 1505 1505 1505 1505 1506 1507 1508 1509 1510 1512 1513 1513 1514 1514 1515 1516 1516 1516 1515 1515 1516 1514 1515 1519 1524 1536 1544 1541 1535 1535 1536 1534 1531 1533 1531 1525 1520 1519 1523 1526 1527 1529 1528 1521 1517 1517 1518 1519 1521 1523 1524 1524 1525 1527 1528 1529 1531 1532 1533
1513 1512 1510 1510 1509 1508 1508 1508 1508 1508 1508 1508 1508 1508 1509 1509 1509 1509 1509 1510 1510 1511 1512 1511 1512 1513 1509 1504 1504 1504 1504 1504 1504 1505 1506 1507 1508 1509 1510 1511 1512 1514 1514 1515 1515 1515 1516 1514 1514 1517 1517 1518 1520 1525 1537 1541 1535 1533 1534 1535 1533 1530 1530 1530 1525 1520 1519 1523 1526 1529 1530 1526 1520 1518 1517 1516 1517 1518 1520 1521 1522 1524 1525 1526 1528 1529 1530 1532
1512 1511 1509 1509 1508 1508 1507 1507 1507 1507 1507 1507 1508 1508 1508 1508 1509 1509 1509 1510 1509 1510 1511 1510 1509 1510 1508 1503 1503 1503 1503 1504 1504 1504 1505 1506 1507 1509 1509 1511 1512 1512 1513 1516 1516 1514 1514 1515 1517 1522 1523 1521 1520 1523 1527 1526 1524 1526 1528 1530 1531 1529 1527 1524 1520 1516 1517 1524 1527 1528 1529 1525 1521 1519 1516 1515 1516 1517 1518 1519 1521 1522 1523 1524 1526 1527 1528 1530
1511 1509 1509 1508 1507 1507 1506 1506 1506 1506 1506 1507 1507 1508 1508 1508 1509 1509 1508 1508 1507 1506 1507 1506 1506 1504 1503 1502 1502 1503 1503 1504 1504 1503 1504 1505 1506 1507 1508 1510 1511 1511 1512 1515 1516 1512 1513 1520 1524 1523 1521 1518 1516 1516 1516 1516 1517 1520 1523 1526 1526 1527 1525 1519 1516 1513 1513 1522 1526 1524 1526 1525 1521 1517 1514 1515 1515 1516 1517 1517 1518 1520 1521 1522 1524 1526 1527 1528
1510 1509 1508 1507 1506 1506 1506 1506 1506 1506 1506 1506 1507 1508 1508 1508 1509 1509 1507 1504 1503 1503 1503 1503 1504 1502 1500 1501 1501 1502 1503 1504 1503 1503 1503 1504 1505 1507 1508 1508 1510 1514 1512 1511 1513 1511 1514 1523 1523 1517 1513 1511 1510 1510 1512 1514 1515 1516 1520 1523 1524 1526 1523 1515 1514 1513 1511 1520 1524 1521 1525 1524 1519 1516 1513 1514 1514 1514 1514 1515 1516 1517 1518 1520 1522 1523 1525 1526
1509 1508 1507 1506 1506 1505 1505 1505 1505 1506 1506 1506 1507 1507 1508 1508 1509 1508 1507 1504 1500 1500 1501 1501 1502 1500 1499 1500 1500 1501 1504 1504 1502 1502 1503 1504 1505 1506 1507 1508 1511 1514 1511 1510 1515 1517 1520 1523 1517 1509 1506 1507 1507 1507 1510 1513 1513 1515 1517 1522 1525 1523 1521 1516 1512 1512 1513 1519 1521 1520 1524 1522 1516 1514 1513 1512 1512 1511 1512 1512 1513 1514 1516 1518 1519 1521 1523 1524
1509 1507 1506 1506 1505 1505 1505 1505 1506 1506 1506 1506 1506 1507 1508 1509 1508 1508 1507 1506 1501 1498 1498 1498 1499 1497 1497 1498 1498 1500 1502 1502 1501 1501 1501 1503 1503 1504 1506 1508 1511 1512 1512 1514 1518 1523 1526 1520 1509 1505 1505 1507 1509 1507 1509 1511 1511 1513 1515 1521 1524 1519 1520 1520 1514 1514 1514 1515 1518 1520 1522 1520 1515 1514 1513 1510 1509 1509 1510 1511 1512 1513 1513 1515 1517 1519 1520 1522
1508 1506 1506 1505 1505 1506 1505 1506 1506 1506 1507 1507 1507 1508 1508 1509 1509 1508 1506 1506 1503 1497 1495 1496 1497 1496 1496 1496 1497 1498 1499 1499 1498 1498 1499 1501 1501 1504 1505 1505 1509 1513 1513 1513 1515 1520 1520 1510 1502 1503 1504 1506 1509 1508 1509 1513 1515 1513 1511 1516 1518 1516 1516 1515 1513 1514 1515 1516 1515 1519 1528 1524 1515 1516 1514 1510 1509 1509 1509 1510 1510 1511 1512 1514 1516 1517 1519 1520
1507 1507 1506 1505 1506 1506 1506 1507 1506 1506 1507 1507 1508 1509 1509 1509 1508 1507 1506 1507 1506 1499 1495 1496 1496 1496 1494 1495 1496 1496 1496 1496 1495 1496 1497 1498 1500 1502 1503 1504 1509 1514 1513 1511 1513 1517 1514 1504 1500 1504 1505 1504 1508 1508 1506 1510 1516 1515 1508 1506 1508 1509 1509 1510 1512 1516 1526 1529 1516 1518 1538 1532 1514 1514 1515 1510 1511 1509 1507 1508 1508 1509 1510 1512 1513 1514 1516 1518
1507 1507 1506 1506 1507 1506 1507 1507 1506 1507 1507 1507 1509 1508 1509 1509 1508 1507 1506 1510 1510 1501 1497 1498 1497 1496 1493 1494 1495 1494 1498 1497 1492 1494 1496 1496 1498 1499 1503 1504 1505 1510 1509 1507 1510 1511 1506 1499 1498 1503 1504 1504 1507 1508 1502 1501 1511 1515 1503 1495 1498 1502 1505 1509 1512 1517 1529 1530 1512 1513 1535 1535 1518 1514 1512 1510 1511 1509 1508 1508 1506 1507 1508 1508 1510 1512 1514 1516
1508 1507 1506 1507 1506 1507 1507 1507 1507 1508 1506 1508 1508 1508 1510 1508 1508 1507 1507 1520 1519 1502 1497 1499 1497 1496 1493 1492 1492 1495 1503 1499 1491 1492 1492 1494 1496 1496 1504 1505 1504 1506 1502 1505 1513 1509 1500 1499 1500 1500 1502 1504 1507 1506 1498 1495 1507 1509 1494 1489 1496 1499 1502 1505 1509 1514 1517 1516 1512 1511 1522 1531 1525 1512 1506 1507 1511 1511 1509 1508 1506 1506 1506 1506 1507 1509 1511 1514
1508 1507 1507 1507 1507 1507 1507 1507 1508 1507 1507 1509 1507 1508 1509 1507 1509 1507 1512 1531 1524 1500 1496 1498 1494 1494 1492 1492 1491 1492 1496 1494 1493 1494 1489 1492 1495 1495 1501 1502 1502 1503 1497 1506 1518 1507 1497 1501 1501 1500 1503 1505 1503 1498 1492 1491 1500 1497 1485 1487 1494 1494 1496 1498 1504 1510 1508 1514 1522 1515 1516 1532 1528 1510 1504 1507 1511 1512 1508 1505 1504 1503 1503 1504 1505 1507 1509 1511
1508 1507 1507 1508 1508 1508 1507 1508 1508 1507 1508 1508 1507 1509 1508 1507 1509 1507 1517 1530 1516 1498 1497 1496 1494 1494 1491 1492 1492 1490 1491 1492 1494 1493 1488 1492 1494 1493 1497 1497 1496 1500 1497 1502 1511 1504 1496 1497 1496 1497 1502 1502 1495 1489 1486 1490 1495 1487 1481 1486 1489 1491 1492 1493 1501 1508 1510 1521 1527 1516 1514 1529 1527 1510 1508 1513 1513 1511 1503 1499 1499 1499 1500 1501 1502 1504 1507 1509
1509 1508 1508 1508 1508 1508 1508 1508 1507 1508 1508 1506 1508 1508 1506 1508 1508 1513 1528 1527 1509 1500 1498 1495 1494 1492 1491 1494 1494 1490 1490 1491 1491 1490 1490 1492 1492 1490 1493 1494 1494 1498 1499 1499 1502 1499 1492 1490 1490 1492 1495 1491 1487 1484 1482 1485 1486 1482 1483 1488 1491 1494 1493 1494 1499 1504 1518 1528 1521 1509 1508 1519 1524 1512 1507 1508 1502 1496 1495 1495 1495 1495 1497 1499 1499 1502 1504 1506
1509 1509 1509 1509 1509 1509 1508 1508 1508 1508 1507 1507 1507 1505 1505 1508 1509 1522 1533 1518 1505 1504 1498 1495 1495 1491 1493 1497 1496 1492 1490 1491 1488 1491 1494 1492 1492 1493 1494 1498 1499 1502 1505 1503 1501 1497 1492 1492 1490 1487 1486 1484 1484 1484 1482 1480 1479 1482 1490 1494 1500 1504 1500 1503 1505 1507 1525 1530 1512 1501 1502 1512 1521 1510 1499 1495 1486 1483 1488 1490 1490 1491 1492 1494 1496 1499 1501 1504
1510 1509 1509 1508 1509 1508 1508 1508 1508 1507 1508 1507 1506 1504 1506 1511 1518 1526 1523 1510 1510 1511 1501 1499 1495 1491 1493 1495 1494 1491 1490 1492 1489 1490 1494 1494 1496 1496 1496 1501 1502 1508 1515 1509 1505 1502 1497 1494 1489 1485 1483 1481 1486 1490 1488 1484 1482 1487 1494 1498 1510 1520 1520 1524 1523 1519 1527 1522 1504 1497 1500 1508 1512 1498 1487 1486 1481 1480 1481 1480 1483 1485 1488 1491 1493 1495 1498 1501
1510 1509 1509 1509 1508 1508 1507 1508 1508 1508 1508 1506 1505 1504 1505 1518 1529 1525 1516 1513 1514 1507 1499 1499 1495 1492 1494 1495 1496 1491 1490 1495 1491 1489 1492 1493 1498 1497 1495 1496 1496 1505 1513 1509 1509 1510 1506 1498 1488 1488 1485 1478 1483 1493 1497 1495 1490 1492 1497 1502 1513 1525 1535 1541 1535 1530 1529 1517 1501 1497 1501 1509 1507 1489 1479 1478 1474 1473 1473 1475 1479 1481 1484 1488 1491 1494 1497 1498
1510 1509 1509 1509 1508 1508 1507 1508 1508 1508 1507 1505 1505 1505 1510 1525 1529 1519 1516 1515 1509 1501 1498 1498 1496 1494 1495 1498 1500 1494 1495 1499 1493 1492 1495 1495 1501 1503 1499 1497 1494 1498 1504 1507 1510 1511 1516 1512 1495 1491 1490 1482 1482 1487 1490 1492 1492 1491 1490 1496 1507 1513 1526 1536 1532 1530 1528 1516 1505 1501 1505 1511 1504 1486 1474 1470 1468 1468 1470 1474 1478 1481 1484 1487 1490 1494 1497 1498
1510 1509 1509 1508 1508 1508 1507 1508 1508 1507 1507 1505 1505 1508 1518 1528 1524 1517 1517 1512 1505 1503 1500 1496 1497 1501 1502 1502 1500 1495 1498 1502 1497 1496 1499 1501 1505 1506 1503 1500 1496 1496 1501 1509 1510 1507 1515 1514 1495 1488 1486 1483 1486 1483 1479 1487 1496 1491 1485 1495 1504 1501 1506 1516 1517 1514 1515 1517 1513 1506 1504 1500 1490 1478 1469 1467 1467 1466 1470 1474 1477 1482 1484 1487 1491 1493 1495 1498
1510 1509 1509 1508 1508 1508 1508 1509 1508 1507 1508 1506 1508 1515 1520 1521 1517 1514 1512 1507 1505 1506 1504 1503 1503 1508 1513 1509 1505 1500 1497 1500 1500 1500 1502 1503 1505 1505 1503 1500 1497 1496 1499 1506 1508 1507 1515 1511 1493 1488 1485 1481 1486 1484 1479 1488 1496 1492 1491 1497 1494 1487 1493 1507 1512 1505 1508 1522 1519 1507 1504 1495 1486 1481 1472 1469 1470 1468 1472 1474 1476 1481 1484 1486 1489 1490 1493 1495
1509 1508 1508 1508 1508 1508 1508 1508 1508 1508 1508 1507 1514 1520 1517 1513 1510 1509 1506 1504 1505 1503 1507 1514 1510 1511 1518 1516 1512 1508 1501 1502 1504 1505 1506 1506 1506 1505 1503 1500 1497 1496 1497 1500 1503 1505 1511 1510 1496 1491 1492 1485 1480 1479 1478 1480 1486 1493 1497 1492 1484 1485 1490 1499 1512 1514 1518 1527 1519 1507 1507 1502 1499 1497 1482 1476 1478 1475 1475 1476 1478 1481 1482 1484 1485 1487 1490 1492
1509 1508 1508 1508 1508 1508 1508 1508 1508 1508 1508 1510 1517 1518 1513 1511 1508 1505 1504 1503 1504 1503 1509 1517 1513 1510 1516 1517 1516 1510 1507 1509 1510 1510 1511 1510 1508 1506 1504 1503 1499 1497 1495 1495 1500 1501 1504 1511 1502 1492 1495 1490 1478 1482 1489 1485 1481 1488 1490 1482 1484 1500 1504 1501 1509 1518 1524 1530 1523 1512 1508 1502 1502 1500 1488 1485 1485 1479 1478 1478 1479 1481 1481 1482 1484 1486 1489 1491
1509 1508 1507 1508 1509 1509 1509 1509 1509 1509 1510 1514 1520 1518 1511 1509 1507 1505 1505 1504 1504 1507 1512 1516 1513 1511 1512 1514 1515 1511 1509 1512 1512 1512 1514 1514 1512 1506 1503 1504 1501 1499 1495 1493 1500 1501 1500 1512 1512 1496 1492 1492 1487 1494 1508 1503 1488 1483 1484 1484 1486 1495 1500 1500 1502 1506 1515 1527 1526 1519 1512 1503 1496 1490 1485 1486 1484 1480 1481 1480 1479 1479 1480 1481 1484 1485 1488 1490
1509 1508 1508 1508 1509 1509 1509 1510 1509 1510 1514 1517 1519 1515 1509 1508 1507 1506 1506 1505 1505 1509 1513 1513 1512 1514 1513 1511 1512 1511 1510 1510 1510 1511 1513 1513 1512 1508 1503 1503 1501 1500 1496 1494 1499 1501 1500 1510 1516 1503 1494 1498 1502 1504 1509 1508 1502 1497 1497 1499 1495 1490 1491 1495 1497 1495 1501 1515 1523 1523 1522 1508 1489 1481 1480 1480 1479 1479 1478 1477 1477 1478 1478 1480 1482 1484 1486 1488
1510 1509 1509 1509 1510 1510 1509 1511 1511 1511 1514 1515 1514 1512 1509 1508 1508 1507 1507 1507 1507 1508 1511 1511 1512 1514 1514 1513 1513 1511 1511 1511 1509 1511 1512 1511 1513 1512 1506 1502 1502 1500 1498 1499 1502 1503 1505 1510 1514 1511 1504 1505 1506 1501 1497 1499 1500 1501 1503 1503 1500 1497 1496 1503 1509 1502 1494 1502 1511 1518 1523 1508 1483 1476 1476 1474 1475 1475 1473 1473 1476 1476 1477 1479 1481 1483 1485 1487
1511 1511 1510 1510 1511 1510 1510 1512 1512 1511 1513 1513 1511 1509 1508 1508 1509 1509 1508 1508 1509 1509 1508 1510 1511 1512 1513 1514 1514 1513 1514 1514 1512 1512 1513 1511 1511 1511 1506 1502 1502 1501 1501 1505 1505 1503 1504 1508 1513 1514 1509 1505 1502 1497 1495 1495 1491 1493 1498 1498 1498 1499 1500 1508 1516 1508 1498 1500 1502 1506 1515 1505 1480 1472 1473 1471 1471 1473 1473 1474 1475 1476 1478 1480 1482 1484 1486 1488
1511 1511 1511 1511 1511 1511 1512 1514 1514 1513 1513 1510 1507 1507 1508 1509 1510 1511 1511 1510 1511 1511 1511 1512 1512 1513 1514 1514 1513 1514 1515 1516 1514 1512 1512 1511 1509 1507 1504 1502 1502 1501 1502 1507 1507 1502 1503 1509 1515 1516 1509 1501 1497 1494 1493 1491 1491 1498 1500 1496 1497 1499 1497 1498 1498 1494 1497 1504 1503 1508 1517 1504 1480 1471 1472 1472 1471 1473 1475 1475 1476 1478 1480 1482 1484 1485 1487 1488
1511 1510 1510 1511 1512 1512 1514 1517 1517 1516 1514 1510 1509 1510 1510 1511 1512 1513 1513 1513 1513 1513 1514 1515 1515 1515 1515 1514 1514 1515 1517 1519 1517 1513 1512 1511 1509 1506 1504 1503 1503 1502 1504 1507 1506 1505 1509 1513 1517 1523 1525 1517 1511 1509 1507 1501 1501 1509 1509 1500 1497 1496 1491 1489 1487 1487 1498 1503 1499 1511 1520 1502 1481 1475 1475 1474 1474 1475 1477 1477 1478 1480 1481 1483 1484 1485 1487 1488
1510 1511 1511 1512 1513 1513 1514 1515 1515 1516 1516 1514 1514 1515 1514 1514 1515 1515 1515 1515 1514 1514 1517 1519 1518 1516 1515 1514 1515 1515 1516 1519 1520 1516 1514 1513 1510 1507 1505 1505 1504 1503 1504 1505 1503 1504 1510 1513 1515 1526 1538 1539 1535 1531 1526 1518 1513 1515 1513 1504 1498 1496 1494 1493 1492 1495 1505 1503 1497 1507 1512 1496 1483 1481 1479 1477 1477 1478 1478 1478 1479 1481 1482 1484 1485 1486 1487 1487
1512 1514 1514 1513 1513 1513 1514 1513 1512 1514 1516 1516 1518 1518 1518 1519 1518 1515 1516 1517 1516 1516 1518 1520 1518 1517 1518 1518 1519 1520 1518 1518 1520 1519 1518 1518 1516 1510 1507 1507 1505 1504 1503 1503 1502 1503 1508 1511 1512 1518 1527 1530 1530 1524 1517 1516 1517 1518 1516 1507 1500 1500 1497 1496 1498 1502 1505 1504 1500 1500 1498 1494 1491 1488 1485 1482 1479 1479 1479 1478 1479 1481 1482 1484 1484 1486 1487 1487
1514 1517 1518 1517 1516 1515 1514 1513 1513 1514 1515 1517 1520 1521 1521 1522 1520 1518 1518 1519 1519 1518 1519 1521 1520 1520 1523 1523 1523 1525 1524 1521 1521 1521 1521 1520 1517 1512 1508 1507 1506 1505 1504 1504 1503 1505 1511 1514 1512 1513 1516 1516 1516 1514 1509 1512 1515 1515 1513 1508 1503 1502 1500 1500 1504 1504 1501 1503 1503 1495 1490 1493 1493 1489 1487 1485 1480 1479 1479 1478 1480 1482 1482 1484 1484 1485 1486 1488
1516 1518 1519 1519 1520 1519 1517 1516 1515 1515 1515 1517 1520 1522 1522 1524 1524 1523 1521 1520 1521 1521 1522 1524 1523 1523 1525 1525 1526 1529 1528 1525 1525 1524 1522 1521 1518 1515 1512 1508 1507 1507 1506 1506 1505 1506 1513 1517 1513 1511 1514 1512 1510 1509 1507 1509 1510 1508 1508 1507 1504 1504 1504 1504 1505 1501 1497 1502 1502 1493 1489 1490 1488 1486 1485 1481 1477 1477 1478 1479 1481 1482 1483 1484 1485 1486 1487 1487
1517 1519 1518 1518 1519 1519 1518 1518 1516 1516 1518 1519 1521 1523 1524 1526 1526 1525 1523 1522 1524 1523 1524 1527 1528 1525 1525 1525 1527 1531 1531 1531 1531 1527 1523 1522 1520 1519 1518 1514 1510 1508 1507 1509 1507 1506 1512 1516 1512 1512 1515 1512 1509 1509 1507 1507 1508 1506 1507 1506 1504 1504 1504 1504 1504 1498 1493 1496 1496 1491 1491 1491 1488 1486 1483 1478 1477 1477 1478 1480 1482 1482 1484 1485 1485 1486 1486 1487
1520 1521 1520 1518 1519 1518 1518 1518 1518 1519 1521 1522 1524 1525 1525 1527 1528 1526 1524 1525 1527 1526 1525 1528 1528 1526 1525 1526 1527 1529 1529 1528 1529 1526 1522 1522 1522 1520 1520 1518 1513 1510 1510 1511 1509 1508 1512 1516 1512 1512 1517 1516 1510 1509 1508 1506 1507 1509 1510 1508 1506 1504 1503 1503 1503 1496 1492 1495 1494 1491 1494 1496 1489 1484 1481 1480 1480 1479 1478 1481 1482 1482 1483 1484 1484 1486 1486 1487
1523 1524 1523 1521 1521 1520 1520 1520 1520 1521 1524 1525 1527 1526 1525 1526 1527 1526 1525 1525 1526 1526 1525 1526 1527 1525 1525 1526 1526 1526 1524 1523 1523 1521 1519 1520 1520 1518 1517 1515 1513 1513 1513 1512 1511 1510 1512 1515 1512 1514 1524 1523 1513 1511 1511 1506 1506 1512 1515 1513 1511 1509 1505 1504 1503 1498 1495 1498 1499 1499 1504 1504 1493 1484 1483 1482 1481 1480 1480 1481 1482 1483 1483 1483 1484 1485 1485 1486
1524 1525 1524 1523 1523 1522 1522 1522 1522 1524 1527 1528 1527 1526 1527 1527 1525 1526 1528 1526 1524 1525 1525 1524 1525 1526 1527 1527 1525 1523 1521 1520 1519 1517 1515 1515 1514 1513 1513 1511 1511 1513 1513 1512 1512 1511 1512 1514 1515 1518 1527 1525 1515 1513 1512 1507 1514 1523 1521 1516 1515 1511 1506 1504 1503 1501 1497 1497 1503 1508 1509 1505 1496 1489 1487 1486 1484 1482 1482 1481 1481 1482 1483 1484 1485 1485 1485 1485